This demonstration page uses our WeatherBlox Daily Observations layout. Learn more.

Left ArrowRight Arrow

41.86663, -103.66717

Hourly Observations for August 31, 2020

Temp ( °F °C ) Dew Point ( °F °C ) Humidity (%) Winds ( mph kmh ) Pressure ( in mb ) Visibility ( mi km ) Precip ( " mm )
12:53 am 00:53 Cloudy 58 14.4 41 5 53 53 N N/A 29.89 1012 10 16 N/A
1:53 am 01:53 Cloudy 56 13.3 40 4.4 55 55 WNW 6 9 29.88 1012 10 16 N/A
2:53 am 02:53 Clear 51 10.6 39 3.9 64 64 WNW 8 13 29.90 1012 10 16 N/A
3:53 am 03:53 Clear 49 9.4 38 3.3 66 66 WNW 5 7 29.90 1013 10 16 N/A
4:53 am 04:53 Clear 47 8.3 39 3.9 74 74 N 5 7 29.91 1013 10 16 N/A
5:53 am 05:53 Clear 45 7.2 39 3.9 80 80 N 3 6 29.93 1014 10 16 N/A
6:53 am 06:53 Sunny 45 7.2 39 3.9 80 80 N N/A 29.94 1014 10 16 N/A
7:53 am 07:53 Sunny 51 10.6 40 4.4 66 66 N N/A 29.94 1014 10 16 N/A
8:53 am 08:53 Sunny 57 13.9 40 4.4 53 53 SSE 3 6 29.92 1013 10 16 N/A
9:53 am 09:53 Sunny 62 16.7 38 3.3 41 41 S 7 11 29.91 1013 10 16 N/A
10:53 am 10:53 Sunny 65 18.3 38 3.3 37 37 VRB 7 11 29.88 1012 10 16 N/A
11:53 am 11:53 Sunny 69 20.6 35 1.7 29 29 SSE 10 17 29.84 1011 10 16 N/A
12:53 pm 12:53 Sunny 72 22.2 36 2.2 27 27 SSE 14 22 29.81 1010 10 16 N/A
1:53 pm 13:53 Sunny 75 23.9 36 2.2 24 24 SSE 14 22 29.77 1008 10 16 N/A
2:53 pm 14:53 Sunny 75 23.9 36 2.2 24 24 undefined N/A 29.76 1008 10 16 N/A
3:53 pm 15:53 Sunny 76 24.4 38 3.3 25 25 ESE 16 26 29.73 1007 10 16 N/A
4:53 pm 16:53 Sunny 75 23.9 40 4.4 28 28 SE 16 26 29.74 1007 10 16 N/A
5:53 pm 17:53 Sunny 74 23.3 41 5 31 31 ESE 15 24 29.75 1007 10 16 N/A
6:53 pm 18:53 Mostly Sunny 70 21.1 42 5.6 37 37 ESE 9 15 29.78 1008 10 16 N/A
7:53 pm 19:53 Clear 67 19.4 44 6.7 44 44 ESE 10 17 29.78 1009 10 16 N/A
8:53 pm 20:53 Clear 65 18.3 46 7.8 51 51 E 9 15 29.80 1009 10 16 N/A
9:53 pm 21:53 Clear 64 17.8 46 7.8 52 52 E 8 13 29.80 1009 10 16 N/A
10:53 pm 22:53 Mostly Cloudy 65 18.3 44 6.7 47 47 SE 6 9 29.80 1009 10 16 N/A
11:53 pm 23:53 Mostly Clear 64 17.8 45 7.2 50 50 SSE 5 7 29.80 1009 10 16 N/A

Powered by AerisWeather